Time,TemperatureF,DewpointF,PressureIn,WindDirection,WindDirectionDegrees,WindSpeedMPH,WindSpeedGustMPH,Humidity,HourlyPrecipIn,Conditions,Clouds,dailyrainin,SoftwareType,DateUTC
2013-08-13 00:02:00,73.6,67.0,29.06,SE,133,0.0,0.0,80,0.00,,SKC,0.00,VWS V14.00,2013-08-13 04:02:00,
2013-08-13 00:07:00,73.6,67.0,29.03,SE,133,0.0,0.0,80,0.00,,SKC,0.00,VWS V14.00,2013-08-13 04:07:00,
2013-08-13 00:09:00,73.6,67.0,29.03,SSE,151,0.0,0.0,80,0.00,,SKC,0.00,VWS V14.00,2013-08-13 04:09:00,
2013-08-13 00:17:00,73.8,67.2,29.03,SW,222,0.0,3.1,80,0.00,,SKC,0.00,VWS V14.00,2013-08-13 04:17:00,
2013-08-13 00:19:00,73.8,67.2,29.03,SSE,155,0.0,4.9,80,0.00,,SKC,0.00,VWS V14.00,2013-08-13 04:19:00,
2013-08-13 00:27:00,73.9,67.4,29.03,SE,133,0.0,4.9,80,0.00,,SKC,0.00,VWS V14.00,2013-08-13 04:27:00,
2013-08-13 00:32:00,73.9,67.8,29.03,SE,144,0.0,2.7,81,0.00,,SKC,0.00,VWS V14.00,2013-08-13 04:32:00,
2013-08-13 00:37:00,73.9,67.8,29.03,SE,144,0.0,2.7,81,0.00,,SKC,0.00,VWS V14.00,2013-08-13 04:37:00,
2013-08-13 00:42:00,73.9,67.8,29.03,SE,144,0.0,0.0,81,0.00,,SKC,0.00,VWS V14.00,2013-08-13 04:42:00,
2013-08-13 00:47:00,73.8,67.2,29.03,SE,139,0.0,0.0,80,0.00,,SKC,0.00,VWS V14.00,2013-08-13 04:47:00,
2013-08-13 00:52:00,73.6,67.4,29.03,SE,139,0.0,0.0,81,0.00,,SKC,0.00,VWS V14.00,2013-08-13 04:52:00,
2013-08-13 00:57:00,73.6,67.4,29.03,SE,130,0.0,0.0,81,0.00,,SKC,0.00,VWS V14.00,2013-08-13 04:57:00,
2013-08-13 01:02:00,73.6,67.4,29.03,ESE,102,3.2,3.6,81,0.00,,SKC,0.00,VWS V14.00,2013-08-13 05:02:00,
2013-08-13 01:07:00,73.6,67.4,29.00,ESE,102,0.0,3.6,81,0.00,,SKC,0.00,VWS V14.00,2013-08-13 05:07:00,
2013-08-13 01:12:00,73.6,67.4,29.00,SE,124,0.0,0.0,81,0.00,,SKC,0.00,VWS V14.00,2013-08-13 05:12:00,
2013-08-13 01:17:00,73.6,67.4,29.00,SSE,159,0.0,2.7,81,0.00,,SKC,0.00,VWS V14.00,2013-08-13 05:17:00,
2013-08-13 01:22:00,73.4,67.2,29.00,ESE,116,0.0,0.0,81,0.00,,SKC,0.00,VWS V14.00,2013-08-13 05:22:00,
2013-08-13 01:27:00,73.4,67.6,29.00,ESE,116,0.0,0.0,82,0.00,,SKC,0.00,VWS V14.00,2013-08-13 05:27:00,
2013-08-13 01:32:00,73.4,67.6,29.00,ESE,116,0.0,0.0,82,0.00,,SKC,0.00,VWS V14.00,2013-08-13 05:32:00,
2013-08-13 01:37:00,73.4,67.6,29.00,ESE,116,0.0,0.0,82,0.00,,SKC,0.00,VWS V14.00,2013-08-13 05:37:00,
2013-08-13 01:42:00,73.2,67.4,29.00,ESE,116,0.0,0.0,82,0.00,,SKC,0.00,VWS V14.00,2013-08-13 05:42:00,
2013-08-13 01:47:00,73.2,67.4,29.00,ESE,116,0.0,0.0,82,0.00,,SKC,0.00,VWS V14.00,2013-08-13 05:47:00,
2013-08-13 01:52:00,73.2,67.8,29.00,ESE,116,0.0,0.0,83,0.00,,SKC,0.00,VWS V14.00,2013-08-13 05:52:00,
2013-08-13 01:57:00,73.0,67.6,29.00,ESE,116,0.0,0.0,83,0.00,,SKC,0.00,VWS V14.00,2013-08-13 05:57:00,
2013-08-13 02:02:00,73.0,67.6,29.00,SSE,149,0.0,0.0,83,0.00,,SKC,0.00,VWS V14.00,2013-08-13 06:02:00,
2013-08-13 02:07:00,73.0,67.6,29.00,SSE,149,0.0,0.0,83,0.00,,SKC,0.00,VWS V14.00,2013-08-13 06:07:00,
2013-08-13 02:12:00,73.0,67.6,29.00,SSE,149,0.0,0.0,83,0.00,,SKC,0.00,VWS V14.00,2013-08-13 06:12:00,
2013-08-13 02:17:00,73.0,67.6,29.00,SSE,149,0.0,0.0,83,0.00,,SKC,0.00,VWS V14.00,2013-08-13 06:17:00,
2013-08-13 02:22:00,73.0,67.6,29.00,SSE,149,0.0,0.0,83,0.00,,SKC,0.00,VWS V14.00,2013-08-13 06:22:00,
2013-08-13 02:27:00,73.0,67.6,29.00,East,99,0.0,0.0,83,0.00,,SKC,0.00,VWS V14.00,2013-08-13 06:27:00,
2013-08-13 02:32:00,73.0,67.6,29.00,East,99,0.0,0.0,83,0.00,,SKC,0.00,VWS V14.00,2013-08-13 06:32:00,
2013-08-13 02:37:00,73.0,67.9,29.00,SE,145,0.0,0.0,84,0.00,,SKC,0.00,VWS V14.00,2013-08-13 06:37:00,
2013-08-13 02:42:00,73.2,68.1,29.00,SE,145,0.0,0.0,84,0.00,,SKC,0.00,VWS V14.00,2013-08-13 06:42:00,
2013-08-13 02:47:00,73.2,68.1,29.00,SE,145,0.0,0.0,84,0.00,,SKC,0.00,VWS V14.00,2013-08-13 06:47:00,
2013-08-13 02:52:00,73.2,68.1,29.00,SE,140,0.0,0.0,84,0.00,,SKC,0.00,VWS V14.00,2013-08-13 06:52:00,
2013-08-13 02:57:00,73.2,68.1,29.00,SW,227,0.0,0.0,84,0.00,,SKC,0.00,VWS V14.00,2013-08-13 06:57:00,
2013-08-13 03:02:00,73.2,68.1,29.00,SE,126,0.0,0.0,84,0.00,,SKC,0.00,VWS V14.00,2013-08-13 07:02:00,
2013-08-13 03:07:00,73.2,68.1,29.00,SE,127,0.0,0.0,84,0.00,,SKC,0.00,VWS V14.00,2013-08-13 07:07:00,
2013-08-13 03:12:00,73.2,68.1,29.00,SE,127,0.0,0.0,84,0.00,,SKC,0.00,VWS V14.00,2013-08-13 07:12:00,
2013-08-13 03:17:00,73.2,68.4,29.00,ESE,120,0.0,0.0,85,0.00,,SKC,0.00,VWS V14.00,2013-08-13 07:17:00,
2013-08-13 03:22:00,73.2,68.4,29.00,ESE,120,0.0,0.0,85,0.00,,SKC,0.00,VWS V14.00,2013-08-13 07:22:00,
2013-08-13 03:27:00,73.2,68.4,29.00,ESE,120,0.0,0.0,85,0.00,,SKC,0.00,VWS V14.00,2013-08-13 07:27:00,
2013-08-13 03:32:00,73.2,68.4,29.00,ESE,120,0.0,0.0,85,0.00,,SKC,0.00,VWS V14.00,2013-08-13 07:32:00,
2013-08-13 03:37:00,73.0,68.3,29.00,SSE,150,0.0,0.0,85,0.00,,SKC,0.00,VWS V14.00,2013-08-13 07:37:00,
2013-08-13 03:42:00,73.2,68.4,29.00,SE,125,0.0,0.0,85,0.00,,SKC,0.00,VWS V14.00,2013-08-13 07:42:00,
2013-08-13 03:47:00,73.2,68.4,29.00,SSE,155,0.0,0.0,85,0.00,,SKC,0.00,VWS V14.00,2013-08-13 07:47:00,
2013-08-13 03:52:00,73.2,68.4,28.97,ESE,118,0.0,0.0,85,0.00,,SKC,0.00,VWS V14.00,2013-08-13 07:52:00,
2013-08-13 03:57:00,73.2,68.4,28.97,SE,132,0.0,0.0,85,0.00,,SKC,0.00,VWS V14.00,2013-08-13 07:57:00,
2013-08-13 04:02:00,73.2,68.4,28.97,SSE,166,0.0,0.0,85,0.00,,SKC,0.00,VWS V14.00,2013-08-13 08:02:00,
2013-08-13 04:07:00,73.2,68.4,28.97,ESE,119,0.0,0.0,85,0.00,,SKC,0.00,VWS V14.00,2013-08-13 08:07:00,
2013-08-13 04:12:00,73.2,68.4,28.97,ESE,119,0.0,0.0,85,0.00,,SKC,0.00,VWS V14.00,2013-08-13 08:12:00,
2013-08-13 04:17:00,73.2,68.4,28.97,ESE,119,0.0,0.0,85,0.00,,SKC,0.00,VWS V14.00,2013-08-13 08:17:00,
2013-08-13 04:22:00,73.2,68.8,28.97,NE,35,0.0,0.0,86,0.00,,SKC,0.00,VWS V14.00,2013-08-13 08:22:00,
2013-08-13 04:27:00,73.2,68.8,28.97,East,89,0.0,2.7,86,0.00,,SKC,0.00,VWS V14.00,2013-08-13 08:27:00,
2013-08-13 04:32:00,73.4,68.6,28.97,East,89,0.0,0.0,85,0.00,,SKC,0.00,VWS V14.00,2013-08-13 08:32:00,
2013-08-13 04:37:00,73.4,68.6,28.97,ESE,120,0.0,0.0,85,0.00,,SKC,0.00,VWS V14.00,2013-08-13 08:37:00,
2013-08-13 04:43:00,73.4,68.6,28.97,SE,142,0.0,0.0,85,0.00,,SKC,0.00,VWS V14.00,2013-08-13 08:43:00,
2013-08-13 04:48:00,73.4,68.6,28.97,SE,142,0.0,0.0,85,0.00,,SKC,0.00,VWS V14.00,2013-08-13 08:48:00,
2013-08-13 04:53:00,73.4,69.0,28.97,East,90,0.0,0.0,86,0.00,,SKC,0.00,VWS V14.00,2013-08-13 08:53:00,
2013-08-13 04:58:00,73.4,69.0,28.97,SE,125,0.0,0.0,86,0.00,,SKC,0.00,VWS V14.00,2013-08-13 08:58:00,
2013-08-13 05:03:00,73.2,68.8,28.97,ESE,110,0.0,0.0,86,0.00,,SKC,0.00,VWS V14.00,2013-08-13 09:03:00,
2013-08-13 05:08:00,73.2,68.8,28.97,ESE,111,0.0,0.0,86,0.00,,SKC,0.00,VWS V14.00,2013-08-13 09:08:00,
2013-08-13 05:13:00,73.2,68.8,28.97,ESE,110,0.0,0.0,86,0.00,,SKC,0.00,VWS V14.00,2013-08-13 09:13:00,
2013-08-13 05:18:00,73.4,69.0,28.97,ESE,110,0.0,0.0,86,0.00,,SKC,0.00,VWS V14.00,2013-08-13 09:18:00,
2013-08-13 05:23:00,73.4,69.0,28.97,ESE,111,0.0,0.0,86,0.00,,SKC,0.00,VWS V14.00,2013-08-13 09:23:00,
2013-08-13 05:28:00,73.2,68.8,28.97,SSE,163,0.0,0.0,86,0.00,,SKC,0.00,VWS V14.00,2013-08-13 09:28:00,
2013-08-13 05:33:00,73.2,68.8,28.97,SSE,163,0.0,0.0,86,0.00,,SKC,0.00,VWS V14.00,2013-08-13 09:33:00,
2013-08-13 05:38:00,73.2,68.8,28.97,SSE,163,0.0,0.0,86,0.00,,SKC,0.00,VWS V14.00,2013-08-13 09:38:00,
2013-08-13 05:43:00,73.2,68.8,28.97,SSE,163,0.0,0.0,86,0.00,,SKC,0.00,VWS V14.00,2013-08-13 09:43:00,
2013-08-13 05:48:00,73.2,68.8,28.97,SSE,163,0.0,0.0,86,0.00,,SKC,0.00,VWS V14.00,2013-08-13 09:48:00,
2013-08-13 05:53:00,73.2,68.8,29.00,SSE,163,0.0,0.0,86,0.00,,SKC,0.00,VWS V14.00,2013-08-13 09:53:00,
2013-08-13 05:58:00,73.2,68.8,29.00,SSE,163,0.0,0.0,86,0.00,,SKC,0.00,VWS V14.00,2013-08-13 09:58:00,
2013-08-13 06:03:00,73.2,68.8,29.00,SSE,163,0.0,0.0,86,0.00,,SKC,0.00,VWS V14.00,2013-08-13 10:03:00,
2013-08-13 06:08:00,73.2,68.8,29.00,SSE,163,0.0,0.0,86,0.00,,SKC,0.00,VWS V14.00,2013-08-13 10:08:00,
2013-08-13 06:13:00,73.2,69.1,29.00,SSE,163,0.0,0.0,87,0.00,,SKC,0.00,VWS V14.00,2013-08-13 10:13:00,
2013-08-13 06:18:00,73.2,69.1,29.00,SSE,163,0.0,0.0,87,0.00,,SKC,0.00,VWS V14.00,2013-08-13 10:18:00,
2013-08-13 06:23:00,73.2,69.1,29.00,SSE,163,0.0,0.0,87,0.00,,SKC,0.00,VWS V14.00,2013-08-13 10:23:00,
2013-08-13 06:28:00,73.2,69.1,29.00,SSE,160,0.0,0.0,87,0.00,,SKC,0.00,VWS V14.00,2013-08-13 10:28:00,
2013-08-13 06:33:00,73.0,68.6,29.00,SSE,160,0.0,0.0,86,0.00,,SKC,0.00,VWS V14.00,2013-08-13 10:33:00,
2013-08-13 06:38:00,73.0,68.6,28.97,SSE,160,0.0,0.0,86,0.00,,SKC,0.00,VWS V14.00,2013-08-13 10:38:00,
2013-08-13 06:43:00,72.9,68.4,28.97,SSE,160,0.0,0.0,86,0.00,,SKC,0.00,VWS V14.00,2013-08-13 10:43:00,
2013-08-13 06:48:00,72.9,68.4,28.97,SSE,160,0.0,0.0,86,0.00,,SKC,0.00,VWS V14.00,2013-08-13 10:48:00,
2013-08-13 06:53:00,72.7,68.3,28.97,SSE,160,0.0,0.0,86,0.00,,SKC,0.00,VWS V14.00,2013-08-13 10:53:00,
2013-08-13 06:58:00,72.7,68.3,28.97,SSE,160,0.0,0.0,86,0.00,,SKC,0.00,VWS V14.00,2013-08-13 10:58:00,
2013-08-13 07:03:00,72.5,68.1,28.97,SSE,160,0.0,0.0,86,0.00,,SKC,0.00,VWS V14.00,2013-08-13 11:03:00,
2013-08-13 07:08:00,72.5,68.1,28.97,SSE,160,0.0,0.0,86,0.00,,SKC,0.00,VWS V14.00,2013-08-13 11:08:00,
2013-08-13 07:13:00,72.5,68.1,28.97,SSE,160,0.0,0.0,86,0.00,,SKC,0.00,VWS V14.00,2013-08-13 11:13:00,
2013-08-13 07:18:00,72.5,68.1,28.97,SSE,160,0.0,0.0,86,0.00,,SKC,0.00,VWS V14.00,2013-08-13 11:18:00,
2013-08-13 07:23:00,72.5,68.1,29.00,SSE,160,0.0,0.0,86,0.00,,SKC,0.00,VWS V14.00,2013-08-13 11:23:00,
2013-08-13 07:28:00,72.5,68.4,29.00,SSE,160,0.0,0.0,87,0.00,,SKC,0.00,VWS V14.00,2013-08-13 11:28:00,
2013-08-13 07:33:00,72.5,68.4,29.00,SSE,154,0.0,0.0,87,0.00,,SKC,0.00,VWS V14.00,2013-08-13 11:33:00,
2013-08-13 07:38:00,72.7,68.6,29.00,SE,137,0.0,0.0,87,0.00,,SKC,0.00,VWS V14.00,2013-08-13 11:38:00,
2013-08-13 07:43:00,72.7,68.6,29.00,SE,137,0.0,0.0,87,0.00,,SKC,0.00,VWS V14.00,2013-08-13 11:43:00,
2013-08-13 07:48:00,72.9,68.8,29.00,SSE,168,0.0,0.0,87,0.00,,SKC,0.00,VWS V14.00,2013-08-13 11:48:00,
2013-08-13 07:53:00,73.0,68.9,29.00,SSE,168,0.0,0.0,87,0.00,,SKC,0.00,VWS V14.00,2013-08-13 11:53:00,
2013-08-13 07:58:00,73.0,68.9,29.00,SSW,196,0.0,0.0,87,0.00,,SKC,0.00,VWS V14.00,2013-08-13 11:58:00,
2013-08-13 08:03:00,73.2,69.1,29.00,South,187,0.0,0.0,87,0.00,,SKC,0.00,VWS V14.00,2013-08-13 12:03:00,
2013-08-13 08:08:00,73.4,69.3,29.00,SSE,156,0.0,0.0,87,0.00,,SKC,0.00,VWS V14.00,2013-08-13 12:08:00,
2013-08-13 08:13:00,73.4,69.3,29.00,SE,130,0.0,4.0,87,0.00,,SKC,0.00,VWS V14.00,2013-08-13 12:13:00,
2013-08-13 08:18:00,73.4,69.3,29.00,South,169,0.0,4.0,87,0.00,,SKC,0.00,VWS V14.00,2013-08-13 12:18:00,
2013-08-13 08:23:00,73.6,69.5,29.00,SE,128,0.0,0.0,87,0.00,,SKC,0.00,VWS V14.00,2013-08-13 12:23:00,
2013-08-13 08:28:00,73.8,69.7,29.00,SE,133,0.0,2.7,87,0.00,,SKC,0.00,VWS V14.00,2013-08-13 12:28:00,
2013-08-13 08:33:00,73.8,69.7,29.00,SE,131,0.0,0.0,87,0.00,,SKC,0.00,VWS V14.00,2013-08-13 12:33:00,
2013-08-13 08:38:00,73.8,69.7,29.00,SSE,151,3.8,4.0,87,0.00,,SKC,0.00,VWS V14.00,2013-08-13 12:38:00,
2013-08-13 08:43:00,73.9,69.8,29.00,SE,127,0.0,2.7,87,0.00,,SKC,0.00,VWS V14.00,2013-08-13 12:43:00,
2013-08-13 08:48:00,74.1,70.0,29.00,SE,128,0.0,4.9,87,0.00,,SKC,0.00,VWS V14.00,2013-08-13 12:48:00,
2013-08-13 08:53:00,74.3,70.2,29.00,SSE,162,0.0,4.0,87,0.00,,SKC,0.00,VWS V14.00,2013-08-13 12:53:00,
2013-08-13 08:58:00,74.3,70.5,29.00,North,7,0.0,4.0,88,0.00,,SKC,0.00,VWS V14.00,2013-08-13 12:58:00,
2013-08-13 09:03:00,74.5,70.7,29.00,NNE,22,0.0,0.0,88,0.00,,SKC,0.00,VWS V14.00,2013-08-13 13:03:00,
2013-08-13 09:08:00,74.8,71.1,29.03,South,189,0.0,3.6,88,0.00,,SKC,0.00,VWS V14.00,2013-08-13 13:08:00,
2013-08-13 09:13:00,75.0,71.2,29.03,SSE,166,0.0,2.2,88,0.00,,SKC,0.00,VWS V14.00,2013-08-13 13:13:00,
2013-08-13 09:18:00,75.0,71.2,29.03,NW,306,0.0,5.4,88,0.00,,SKC,0.00,VWS V14.00,2013-08-13 13:18:00,
2013-08-13 09:23:00,75.0,70.9,29.03,ESE,103,0.0,3.1,87,0.00,,SKC,0.00,VWS V14.00,2013-08-13 13:23:00,
2013-08-13 09:28:00,75.0,70.9,29.03,SW,226,0.0,3.1,87,0.00,,SKC,0.00,VWS V14.00,2013-08-13 13:28:00,
2013-08-13 09:33:00,75.0,70.9,29.03,ENE,64,0.0,2.7,87,0.00,,SKC,0.00,VWS V14.00,2013-08-13 13:33:00,
2013-08-13 09:38:00,75.0,70.9,29.03,SSE,150,0.0,2.7,87,0.00,,SKC,0.00,VWS V14.00,2013-08-13 13:38:00,
2013-08-13 09:43:00,75.4,71.2,29.03,SSW,213,0.0,2.7,87,0.00,,SKC,0.00,VWS V14.00,2013-08-13 13:43:00,
2013-08-13 09:48:00,75.6,71.4,29.03,SE,136,0.0,2.7,87,0.00,,SKC,0.00,VWS V14.00,2013-08-13 13:48:00,
2013-08-13 09:53:00,75.7,71.6,29.00,ESE,120,0.0,3.6,87,0.00,,SKC,0.00,VWS V14.00,2013-08-13 13:53:00,
2013-08-13 09:58:00,75.9,71.8,29.00,SSE,148,2.7,5.8,87,0.00,,SKC,0.00,VWS V14.00,2013-08-13 13:58:00,
2013-08-13 10:03:00,76.3,72.1,29.00,ESE,109,0.0,0.0,87,0.00,,SKC,0.00,VWS V14.00,2013-08-13 14:03:00,
2013-08-13 10:08:00,76.5,72.3,29.00,East,98,0.0,2.7,87,0.00,,SKC,0.00,VWS V14.00,2013-08-13 14:08:00,
2013-08-13 10:13:00,76.5,72.0,29.00,ENE,62,0.0,0.0,86,0.00,,SKC,0.00,VWS V14.00,2013-08-13 14:13:00,
2013-08-13 10:18:00,76.6,72.1,29.00,SE,124,0.0,4.0,86,0.00,,SKC,0.00,VWS V14.00,2013-08-13 14:18:00,
2013-08-13 10:23:00,77.0,72.5,29.00,SE,135,5.4,5.4,86,0.00,,SKC,0.00,VWS V14.00,2013-08-13 14:23:00,
2013-08-13 10:28:00,77.5,73.0,29.00,SE,135,5.9,6.3,86,0.00,,SKC,0.00,VWS V14.00,2013-08-13 14:28:00,
2013-08-13 10:34:00,77.9,73.4,29.00,SSW,193,2.7,3.6,86,0.00,,SKC,0.00,VWS V14.00,2013-08-13 14:34:00,
2013-08-13 10:39:00,78.4,73.6,29.00,SE,126,0.0,6.3,85,0.00,,SKC,0.00,VWS V14.00,2013-08-13 14:39:00,
2013-08-13 10:44:00,78.8,73.9,29.00,SE,129,0.0,4.0,85,0.00,,SKC,0.00,VWS V14.00,2013-08-13 14:44:00,
2013-08-13 10:49:00,79.0,73.7,29.00,East,80,2.7,4.0,84,0.00,,SKC,0.00,VWS V14.00,2013-08-13 14:49:00,
2013-08-13 10:54:00,78.8,73.2,29.03,WNW,291,0.0,2.7,83,0.00,,SKC,0.00,VWS V14.00,2013-08-13 14:54:00,
2013-08-13 10:59:00,78.6,73.0,29.03,ENE,78,0.0,2.7,83,0.00,,SKC,0.00,VWS V14.00,2013-08-13 14:59:00,
2013-08-13 11:04:00,78.6,73.0,29.03,ESE,108,0.0,2.7,83,0.00,,SKC,0.00,VWS V14.00,2013-08-13 15:04:00,
2013-08-13 11:09:00,78.8,72.8,29.03,East,88,0.0,4.9,82,0.00,,SKC,0.00,VWS V14.00,2013-08-13 15:09:00,
2013-08-13 11:14:00,79.2,73.2,29.03,WSW,245,0.0,5.8,82,0.00,,SKC,0.00,VWS V14.00,2013-08-13 15:14:00,
2013-08-13 11:19:00,79.3,73.0,29.03,SE,143,0.0,5.8,81,0.00,,SKC,0.00,VWS V14.00,2013-08-13 15:19:00,
2013-08-13 11:24:00,79.7,73.4,29.00,West,264,0.0,5.8,81,0.00,,SKC,0.00,VWS V14.00,2013-08-13 15:24:00,
2013-08-13 11:29:00,79.7,72.6,29.00,SE,145,5.9,5.9,79,0.00,,SKC,0.00,VWS V14.00,2013-08-13 15:29:00,
2013-08-13 11:34:00,79.5,72.4,29.00,SSE,149,0.0,4.0,79,0.00,,SKC,0.00,VWS V14.00,2013-08-13 15:34:00,
2013-08-13 11:39:00,79.3,72.3,29.00,ESE,119,0.0,4.0,79,0.00,,SKC,0.00,VWS V14.00,2013-08-13 15:39:00,
2013-08-13 11:44:00,79.3,72.3,29.00,ESE,109,0.0,4.5,79,0.00,,SKC,0.00,VWS V14.00,2013-08-13 15:44:00,
2013-08-13 11:49:00,79.3,72.3,29.00,ESE,114,4.3,4.5,79,0.00,,SKC,0.00,VWS V14.00,2013-08-13 15:49:00,
2013-08-13 11:54:00,79.3,72.3,29.00,SE,144,0.0,3.1,79,0.00,,SKC,0.00,VWS V14.00,2013-08-13 15:54:00,
2013-08-13 11:59:00,79.5,72.4,29.00,SSW,193,3.8,3.8,79,0.00,,SKC,0.00,VWS V14.00,2013-08-13 15:59:00,
2013-08-13 12:04:00,79.9,72.8,29.00,WNW,295,0.0,2.7,79,0.00,,SKC,0.00,VWS V14.00,2013-08-13 16:04:00,
2013-08-13 12:09:00,80.6,73.1,29.00,SE,124,0.0,4.0,78,0.00,,SKC,0.00,VWS V14.00,2013-08-13 16:09:00,
2013-08-13 12:14:00,80.8,72.9,29.00,SSE,149,0.0,10.1,77,0.00,,SKC,0.00,VWS V14.00,2013-08-13 16:14:00,
2013-08-13 12:19:00,81.5,73.6,29.00,NE,54,0.0,10.1,77,0.00,,SKC,0.00,VWS V14.00,2013-08-13 16:19:00,
2013-08-13 12:24:00,82.2,73.9,29.00,West,263,0.0,5.8,76,0.00,,SKC,0.00,VWS V14.00,2013-08-13 16:24:00,
2013-08-13 12:29:00,83.1,74.8,29.00,SE,134,4.3,5.8,76,0.00,,SKC,0.00,VWS V14.00,2013-08-13 16:29:00,
2013-08-13 12:34:00,83.3,74.6,29.00,WNW,301,0.0,0.0,75,0.00,,SKC,0.00,VWS V14.00,2013-08-13 16:34:00,
2013-08-13 12:39:00,83.5,74.7,29.00,ESE,114,0.0,3.1,75,0.00,,SKC,0.00,VWS V14.00,2013-08-13 16:39:00,
2013-08-13 12:44:00,83.5,74.3,29.00,WNW,292,0.0,0.0,74,0.00,,SKC,0.00,VWS V14.00,2013-08-13 16:44:00,
2013-08-13 12:49:00,83.1,73.6,29.00,WNW,289,0.0,0.0,73,0.00,,SKC,0.00,VWS V14.00,2013-08-13 16:49:00,
2013-08-13 12:54:00,83.1,72.8,29.00,ENE,66,3.8,8.3,71,0.00,,SKC,0.00,VWS V14.00,2013-08-13 16:54:00,
2013-08-13 12:59:00,83.8,73.8,29.00,WSW,247,0.0,8.3,72,0.00,,SKC,0.00,VWS V14.00,2013-08-13 16:59:00,
2013-08-13 13:04:00,84.6,73.7,29.00,SW,225,0.0,5.8,70,0.00,,SKC,0.00,VWS V14.00,2013-08-13 17:04:00,
2013-08-13 13:19:00,85.6,74.3,29.00,SSE,152,2.7,4.9,69,0.00,,SKC,0.00,VWS V14.00,2013-08-13 17:19:00,
2013-08-13 13:24:00,86.4,75.0,29.00,SSE,152,0.0,3.6,69,0.00,,SKC,0.00,VWS V14.00,2013-08-13 17:24:00,
2013-08-13 13:29:00,86.4,73.7,29.00,NW,326,0.0,5.8,66,0.00,,SKC,0.00,VWS V14.00,2013-08-13 17:29:00,
2013-08-13 13:34:00,86.5,73.8,29.00,SSW,213,3.8,5.4,66,0.00,,SKC,0.00,VWS V14.00,2013-08-13 17:34:00,
2013-08-13 13:39:00,86.0,73.3,29.00,West,270,0.0,5.4,66,0.00,,SKC,0.00,VWS V14.00,2013-08-13 17:39:00,
2013-08-13 13:44:00,85.3,72.6,29.00,SE,128,0.0,0.0,66,0.00,,SKC,0.00,VWS V14.00,2013-08-13 17:44:00,
2013-08-13 13:49:00,85.5,72.8,28.97,North,0,0.0,0.0,66,0.00,,SKC,0.00,VWS V14.00,2013-08-13 17:49:00,
2013-08-13 13:54:00,85.6,72.1,28.97,NW,317,3.2,3.6,64,0.00,,SKC,0.00,VWS V14.00,2013-08-13 17:54:00,
2013-08-13 13:59:00,85.1,71.6,28.97,SSE,159,0.0,3.6,64,0.00,,SKC,0.00,VWS V14.00,2013-08-13 17:59:00,
2013-08-13 14:04:00,85.1,72.0,28.97,NW,316,0.0,3.1,65,0.00,,SKC,0.00,VWS V14.00,2013-08-13 18:04:00,
2013-08-13 14:10:00,86.0,72.4,28.97,NW,316,3.2,3.2,64,0.00,,SKC,0.00,VWS V14.00,2013-08-13 18:10:00,
2013-08-13 14:15:00,86.2,72.1,28.97,WNW,303,0.0,0.0,63,0.00,,SKC,0.00,VWS V14.00,2013-08-13 18:15:00,
2013-08-13 14:20:00,86.4,71.8,28.97,SSE,160,0.0,5.4,62,0.00,,SKC,0.00,VWS V14.00,2013-08-13 18:20:00,
2013-08-13 14:25:00,86.5,71.5,28.97,WSW,249,0.0,3.6,61,0.00,,SKC,0.00,VWS V14.00,2013-08-13 18:25:00,
2013-08-13 14:30:00,86.0,71.0,28.97,NW,323,0.0,3.6,61,0.00,,SKC,0.00,VWS V14.00,2013-08-13 18:30:00,
2013-08-13 14:35:00,85.8,71.3,28.97,ENE,61,0.0,0.0,62,0.00,,SKC,0.00,VWS V14.00,2013-08-13 18:35:00,
2013-08-13 14:40:00,86.2,71.6,28.97,ENE,64,0.0,2.7,62,0.00,,SKC,0.00,VWS V14.00,2013-08-13 18:40:00,
2013-08-13 14:45:00,87.1,71.5,28.97,SSE,156,0.0,0.0,60,0.00,,SKC,0.00,VWS V14.00,2013-08-13 18:45:00,
2013-08-13 14:50:00,87.3,71.7,28.97,North,2,0.0,2.7,60,0.00,,SKC,0.00,VWS V14.00,2013-08-13 18:50:00,
2013-08-13 14:55:00,87.1,71.0,28.97,South,188,0.0,0.0,59,0.00,,SKC,0.00,VWS V14.00,2013-08-13 18:55:00,
2013-08-13 15:00:00,86.9,70.9,28.97,East,85,0.0,3.1,59,0.00,,SKC,0.00,VWS V14.00,2013-08-13 19:00:00,
2013-08-13 15:05:00,86.9,70.9,28.97,WSW,241,0.0,5.4,59,0.00,,SKC,0.00,VWS V14.00,2013-08-13 19:05:00,
2013-08-13 15:10:00,87.1,71.0,28.97,West,268,0.0,5.4,59,0.00,,SKC,0.00,VWS V14.00,2013-08-13 19:10:00,
2013-08-13 15:15:00,87.1,70.5,28.97,WSW,240,0.0,0.0,58,0.00,,SKC,0.00,VWS V14.00,2013-08-13 19:15:00,
2013-08-13 15:20:00,87.1,70.5,28.97,East,89,0.0,4.5,58,0.00,,SKC,0.00,VWS V14.00,2013-08-13 19:20:00,
2013-08-13 15:25:00,87.1,70.5,28.97,SE,141,0.0,0.0,58,0.00,,SKC,0.00,VWS V14.00,2013-08-13 19:25:00,
2013-08-13 15:30:00,87.3,70.7,28.97,SW,234,0.0,2.7,58,0.00,,SKC,0.00,VWS V14.00,2013-08-13 19:30:00,
2013-08-13 15:35:00,87.1,70.0,28.94,WSW,253,3.2,3.2,57,0.00,,SKC,0.00,VWS V14.00,2013-08-13 19:35:00,
2013-08-13 15:40:00,87.1,69.5,28.94,North,4,0.0,0.0,56,0.00,,SKC,0.00,VWS V14.00,2013-08-13 19:40:00,
2013-08-13 15:45:00,87.1,69.5,28.94,WNW,289,0.0,3.1,56,0.00,,SKC,0.00,VWS V14.00,2013-08-13 19:45:00,
2013-08-13 15:50:00,87.1,69.0,28.94,NW,304,0.0,0.0,55,0.00,,SKC,0.00,VWS V14.00,2013-08-13 19:50:00,
2013-08-13 15:55:00,87.3,69.1,28.94,SSW,213,3.2,3.2,55,0.00,,SKC,0.00,VWS V14.00,2013-08-13 19:55:00,
2013-08-13 16:00:00,86.9,68.8,28.94,NW,319,0.0,0.0,55,0.00,,SKC,0.00,VWS V14.00,2013-08-13 20:00:00,
2013-08-13 16:05:00,86.2,67.6,28.94,NW,319,0.0,0.0,54,0.00,,SKC,0.00,VWS V14.00,2013-08-13 20:05:00,
2013-08-13 16:10:00,85.5,66.9,28.94,NW,319,0.0,0.0,54,0.00,,SKC,0.00,VWS V14.00,2013-08-13 20:10:00,
2013-08-13 16:15:00,84.4,65.4,28.94,ENE,61,0.0,4.9,53,0.00,,SKC,0.00,VWS V14.00,2013-08-13 20:15:00,
2013-08-13 16:20:00,83.5,65.6,28.97,North,0,0.0,0.0,55,0.04,,SKC,0.04,VWS V14.00,2013-08-13 20:20:00,
2013-08-13 16:25:00,82.0,65.3,28.97,SSW,212,0.0,0.0,57,0.08,,SKC,0.08,VWS V14.00,2013-08-13 20:25:00,
2013-08-13 16:30:00,81.1,65.5,28.97,NNE,23,0.0,0.0,59,0.08,,SKC,0.08,VWS V14.00,2013-08-13 20:30:00,
2013-08-13 16:35:00,81.0,65.8,28.94,NE,44,0.0,0.0,60,0.08,,SKC,0.08,VWS V14.00,2013-08-13 20:35:00,
2013-08-13 16:40:00,81.1,66.9,28.94,ESE,111,0.0,3.1,62,0.08,,SKC,0.08,VWS V14.00,2013-08-13 20:40:00,
2013-08-13 16:45:00,81.0,67.2,28.94,South,170,0.0,3.1,63,0.08,,SKC,0.08,VWS V14.00,2013-08-13 20:45:00,
2013-08-13 16:50:00,81.1,67.8,28.94,South,169,0.0,0.0,64,0.08,,SKC,0.08,VWS V14.00,2013-08-13 20:50:00,
2013-08-13 16:55:00,81.3,68.4,28.94,NNW,327,0.0,0.0,65,0.08,,SKC,0.08,VWS V14.00,2013-08-13 20:55:00,
2013-08-13 17:00:00,81.1,68.3,28.94,NW,305,0.0,2.7,65,0.08,,SKC,0.08,VWS V14.00,2013-08-13 21:00:00,
2013-08-13 17:05:00,81.0,68.1,28.94,SE,128,0.0,3.1,65,0.08,,SKC,0.08,VWS V14.00,2013-08-13 21:05:00,
2013-08-13 17:10:00,81.1,68.7,28.94,SE,142,0.0,0.0,66,0.08,,SKC,0.08,VWS V14.00,2013-08-13 21:10:00,
2013-08-13 17:15:00,81.1,68.7,28.94,West,268,0.0,0.0,66,0.08,,SKC,0.08,VWS V14.00,2013-08-13 21:15:00,
2013-08-13 17:20:00,81.1,68.7,28.94,SW,232,0.0,0.0,66,0.04,,SKC,0.08,VWS V14.00,2013-08-13 21:20:00,
2013-08-13 17:25:00,81.0,68.5,28.94,SW,232,0.0,0.0,66,0.04,,SKC,0.08,VWS V14.00,2013-08-13 21:25:00,
2013-08-13 17:30:00,81.0,69.0,28.94,SW,232,0.0,0.0,67,0.00,,SKC,0.08,VWS V14.00,2013-08-13 21:30:00,
2013-08-13 17:35:00,81.0,69.0,28.94,WSW,238,0.0,0.0,67,0.00,,SKC,0.08,VWS V14.00,2013-08-13 21:35:00,
2013-08-13 17:40:00,80.8,68.8,28.94,NE,39,0.0,0.0,67,0.00,,SKC,0.08,VWS V14.00,2013-08-13 21:40:00,
2013-08-13 17:45:00,80.8,68.8,28.94,NE,39,0.0,0.0,67,0.00,,SKC,0.08,VWS V14.00,2013-08-13 21:45:00,
2013-08-13 17:50:00,80.8,68.8,28.94,SE,137,0.0,2.7,67,0.00,,SKC,0.08,VWS V14.00,2013-08-13 21:50:00,
2013-08-13 17:55:00,81.0,69.0,28.94,SE,137,0.0,2.7,67,0.00,,SKC,0.08,VWS V14.00,2013-08-13 21:55:00,
2013-08-13 18:00:00,81.0,69.0,28.94,SSW,197,0.0,0.0,67,0.00,,SKC,0.08,VWS V14.00,2013-08-13 22:00:00,
2013-08-13 18:05:00,80.8,68.8,28.94,SSW,197,0.0,0.0,67,0.00,,SKC,0.08,VWS V14.00,2013-08-13 22:05:00,
2013-08-13 18:10:00,81.0,69.0,28.94,SSW,197,0.0,0.0,67,0.00,,SKC,0.08,VWS V14.00,2013-08-13 22:10:00,
2013-08-13 18:15:00,81.1,69.2,28.94,SSW,197,0.0,0.0,67,0.00,,SKC,0.08,VWS V14.00,2013-08-13 22:15:00,
2013-08-13 18:20:00,81.1,69.2,28.94,SSW,197,0.0,0.0,67,0.00,,SKC,0.08,VWS V14.00,2013-08-13 22:20:00,
2013-08-13 18:25:00,81.1,69.2,28.94,SSW,197,0.0,0.0,67,0.00,,SKC,0.08,VWS V14.00,2013-08-13 22:25:00,
2013-08-13 18:30:00,81.0,69.0,28.94,SSW,197,0.0,0.0,67,0.00,,SKC,0.08,VWS V14.00,2013-08-13 22:30:00,
2013-08-13 18:35:00,80.8,68.8,28.94,SSW,197,0.0,0.0,67,0.00,,SKC,0.08,VWS V14.00,2013-08-13 22:35:00,
2013-08-13 18:40:00,80.8,69.2,28.94,SSW,197,0.0,0.0,68,0.00,,SKC,0.08,VWS V14.00,2013-08-13 22:40:00,
2013-08-13 18:45:00,80.6,68.6,28.94,SSW,197,0.0,0.0,67,0.00,,SKC,0.08,VWS V14.00,2013-08-13 22:45:00,
2013-08-13 18:50:00,80.2,68.3,28.94,SSW,197,0.0,0.0,67,0.00,,SKC,0.08,VWS V14.00,2013-08-13 22:50:00,
2013-08-13 18:55:00,80.1,68.1,28.94,SSW,197,0.0,0.0,67,0.00,,SKC,0.08,VWS V14.00,2013-08-13 22:55:00,
2013-08-13 19:00:00,79.9,67.9,28.94,SSW,197,0.0,0.0,67,0.00,,SKC,0.08,VWS V14.00,2013-08-13 23:00:00,
2013-08-13 19:05:00,79.7,68.2,28.94,SSW,197,0.0,0.0,68,0.00,,SKC,0.08,VWS V14.00,2013-08-13 23:05:00,
2013-08-13 19:10:00,79.5,68.0,28.94,SSW,197,0.0,0.0,68,0.00,,SKC,0.08,VWS V14.00,2013-08-13 23:10:00,
2013-08-13 19:15:00,79.3,67.9,28.94,SSW,197,0.0,0.0,68,0.00,,SKC,0.08,VWS V14.00,2013-08-13 23:15:00,
2013-08-13 19:21:00,79.0,67.5,28.94,SSW,197,0.0,0.0,68,0.00,,SKC,0.08,VWS V14.00,2013-08-13 23:21:00,
2013-08-13 19:26:00,79.0,67.5,28.94,SSW,197,0.0,0.0,68,0.00,,SKC,0.08,VWS V14.00,2013-08-13 23:26:00,
2013-08-13 19:31:00,78.8,67.4,28.94,SSW,197,0.0,0.0,68,0.00,,SKC,0.08,VWS V14.00,2013-08-13 23:31:00,
2013-08-13 19:36:00,78.8,67.4,28.94,SSW,197,0.0,0.0,68,0.00,,SKC,0.08,VWS V14.00,2013-08-13 23:36:00,
2013-08-13 19:41:00,78.8,67.4,28.94,SSW,197,0.0,0.0,68,0.00,,SKC,0.08,VWS V14.00,2013-08-13 23:41:00,
2013-08-13 19:46:00,78.6,67.6,28.94,SSW,197,0.0,0.0,69,0.00,,SKC,0.08,VWS V14.00,2013-08-13 23:46:00,
2013-08-13 19:51:00,78.4,67.4,28.94,SSW,197,0.0,0.0,69,0.00,,SKC,0.08,VWS V14.00,2013-08-13 23:51:00,
2013-08-13 19:56:00,78.4,67.4,28.94,SSW,197,0.0,0.0,69,0.00,,SKC,0.08,VWS V14.00,2013-08-13 23:56:00,
2013-08-13 20:01:00,78.3,67.3,28.94,SSW,197,0.0,0.0,69,0.00,,SKC,0.08,VWS V14.00,2013-08-14 00:01:00,
2013-08-13 20:06:00,78.1,67.1,28.94,SSW,197,0.0,0.0,69,0.00,,SKC,0.08,VWS V14.00,2013-08-14 00:06:00,
2013-08-13 20:11:00,78.1,67.1,28.94,SSW,197,0.0,0.0,69,0.00,,SKC,0.08,VWS V14.00,2013-08-14 00:11:00,
2013-08-13 20:16:00,77.9,66.9,28.94,SSW,197,0.0,0.0,69,0.00,,SKC,0.08,VWS V14.00,2013-08-14 00:16:00,
2013-08-13 20:21:00,77.7,66.8,28.97,SSW,197,0.0,0.0,69,0.00,,SKC,0.08,VWS V14.00,2013-08-14 00:21:00,
2013-08-13 20:26:00,77.5,66.6,28.97,SSW,197,0.0,0.0,69,0.00,,SKC,0.08,VWS V14.00,2013-08-14 00:26:00,
2013-08-13 20:31:00,77.4,66.4,28.97,SSW,197,0.0,0.0,69,0.00,,SKC,0.08,VWS V14.00,2013-08-14 00:31:00,
2013-08-13 20:36:00,77.4,66.4,28.94,SSW,197,0.0,0.0,69,0.00,,SKC,0.08,VWS V14.00,2013-08-14 00:36:00,
2013-08-13 20:41:00,77.2,66.2,28.94,SSW,197,0.0,0.0,69,0.00,,SKC,0.08,VWS V14.00,2013-08-14 00:41:00,
2013-08-13 20:46:00,77.0,66.1,28.94,SSW,197,0.0,0.0,69,0.00,,SKC,0.08,VWS V14.00,2013-08-14 00:46:00,
2013-08-13 20:51:00,76.8,66.3,28.97,SSW,197,0.0,0.0,70,0.00,,SKC,0.08,VWS V14.00,2013-08-14 00:51:00,
2013-08-13 20:56:00,76.6,66.1,28.97,SSW,197,0.0,0.0,70,0.00,,SKC,0.08,VWS V14.00,2013-08-14 00:56:00,
2013-08-13 21:01:00,76.5,66.0,28.97,SSW,197,0.0,0.0,70,0.00,,SKC,0.08,VWS V14.00,2013-08-14 01:01:00,
2013-08-13 21:06:00,76.5,66.0,28.97,SSW,197,0.0,0.0,70,0.00,,SKC,0.08,VWS V14.00,2013-08-14 01:06:00,
2013-08-13 21:11:00,76.1,65.6,28.97,SSW,197,0.0,0.0,70,0.00,,SKC,0.08,VWS V14.00,2013-08-14 01:11:00,
2013-08-13 21:16:00,75.9,65.4,28.97,SSW,197,0.0,0.0,70,0.00,,SKC,0.08,VWS V14.00,2013-08-14 01:16:00,
2013-08-13 21:21:00,75.9,65.4,28.97,SSW,197,0.0,0.0,70,0.00,,SKC,0.08,VWS V14.00,2013-08-14 01:21:00,
2013-08-13 21:26:00,75.6,65.1,28.97,SSW,197,0.0,0.0,70,0.00,,SKC,0.08,VWS V14.00,2013-08-14 01:26:00,
2013-08-13 21:31:00,75.6,65.1,28.97,SSW,197,0.0,0.0,70,0.00,,SKC,0.08,VWS V14.00,2013-08-14 01:31:00,
2013-08-13 21:36:00,75.4,64.9,28.97,SSW,197,0.0,0.0,70,0.00,,SKC,0.08,VWS V14.00,2013-08-14 01:36:00,
2013-08-13 21:41:00,75.2,65.2,28.97,SSW,197,0.0,0.0,71,0.00,,SKC,0.08,VWS V14.00,2013-08-14 01:41:00,
2013-08-13 21:46:00,75.0,65.4,28.97,SSW,197,0.0,0.0,72,0.00,,SKC,0.08,VWS V14.00,2013-08-14 01:46:00,
2013-08-13 21:51:00,75.0,65.4,28.97,SSW,197,0.0,0.0,72,0.00,,SKC,0.08,VWS V14.00,2013-08-14 01:51:00,
2013-08-13 21:56:00,75.0,65.4,28.97,SSW,197,0.0,0.0,72,0.00,,SKC,0.08,VWS V14.00,2013-08-14 01:56:00,
2013-08-13 22:01:00,74.8,65.2,28.97,SSW,197,0.0,0.0,72,0.00,,SKC,0.08,VWS V14.00,2013-08-14 02:01:00,
2013-08-13 22:06:00,74.8,65.6,28.97,SSW,197,0.0,0.0,73,0.00,,SKC,0.08,VWS V14.00,2013-08-14 02:06:00,
2013-08-13 22:11:00,74.8,65.6,28.97,SSW,197,0.0,0.0,73,0.00,,SKC,0.08,VWS V14.00,2013-08-14 02:11:00,
2013-08-13 22:16:00,74.8,65.6,28.97,SSW,197,0.0,0.0,73,0.00,,SKC,0.08,VWS V14.00,2013-08-14 02:16:00,
2013-08-13 22:21:00,74.7,65.4,28.97,SSW,197,0.0,0.0,73,0.00,,SKC,0.08,VWS V14.00,2013-08-14 02:21:00,
2013-08-13 22:26:00,74.7,65.4,28.97,SSW,197,0.0,0.0,73,0.00,,SKC,0.08,VWS V14.00,2013-08-14 02:26:00,
2013-08-13 22:31:00,74.7,65.4,28.97,SSW,197,0.0,0.0,73,0.00,,SKC,0.08,VWS V14.00,2013-08-14 02:31:00,
2013-08-13 22:36:00,74.7,65.8,28.97,SSW,197,0.0,0.0,74,0.00,,SKC,0.08,VWS V14.00,2013-08-14 02:36:00,
2013-08-13 22:41:00,74.5,65.7,28.97,SSW,197,0.0,0.0,74,0.00,,SKC,0.08,VWS V14.00,2013-08-14 02:41:00,
2013-08-13 22:46:00,74.5,65.7,28.97,SSW,197,0.0,0.0,74,0.00,,SKC,0.08,VWS V14.00,2013-08-14 02:46:00,
2013-08-13 22:51:00,74.3,65.5,29.00,SSW,197,0.0,0.0,74,0.00,,SKC,0.08,VWS V14.00,2013-08-14 02:51:00,
2013-08-13 22:56:00,74.3,65.9,29.00,SSW,197,0.0,0.0,75,0.00,,SKC,0.08,VWS V14.00,2013-08-14 02:56:00,
2013-08-13 23:01:00,74.3,65.9,29.00,SSW,197,0.0,0.0,75,0.00,,SKC,0.08,VWS V14.00,2013-08-14 03:01:00,
2013-08-13 23:06:00,74.3,65.9,29.00,SSW,197,0.0,0.0,75,0.00,,SKC,0.08,VWS V14.00,2013-08-14 03:06:00,
2013-08-13 23:11:00,74.3,65.9,29.00,SSW,197,0.0,0.0,75,0.00,,SKC,0.08,VWS V14.00,2013-08-14 03:11:00,
2013-08-13 23:16:00,74.1,65.7,29.00,SSW,197,0.0,0.0,75,0.00,,SKC,0.08,VWS V14.00,2013-08-14 03:16:00,
2013-08-13 23:21:00,74.1,65.7,29.00,SSW,197,0.0,0.0,75,0.00,,SKC,0.08,VWS V14.00,2013-08-14 03:21:00,
2013-08-13 23:26:00,74.1,65.7,29.00,SSW,197,0.0,0.0,75,0.00,,SKC,0.08,VWS V14.00,2013-08-14 03:26:00,
2013-08-13 23:31:00,73.9,65.5,29.00,SSW,197,0.0,0.0,75,0.00,,SKC,0.08,VWS V14.00,2013-08-14 03:31:00,
2013-08-13 23:36:00,73.8,65.7,29.00,SSW,197,0.0,0.0,76,0.00,,SKC,0.08,VWS V14.00,2013-08-14 03:36:00,
2013-08-13 23:41:00,73.6,65.6,29.00,SSE,153,0.0,0.0,76,0.00,,SKC,0.08,VWS V14.00,2013-08-14 03:41:00,
2013-08-13 23:46:00,73.6,65.6,29.00,SSE,153,0.0,0.0,76,0.00,,SKC,0.08,VWS V14.00,2013-08-14 03:46:00,
2013-08-13 23:51:00,73.4,65.4,29.00,NNE,21,0.0,0.0,76,0.00,,SKC,0.08,VWS V14.00,2013-08-14 03:51:00,
2013-08-13 23:56:00,73.4,65.4,29.00,NE,56,0.0,4.9,76,0.00,,SKC,0.08,VWS V14.00,2013-08-14 03:56:00,